FW3978 Weather Reports


time (UTC)temp
C
wind
direction
speed
KPH
gust
KPH
rain 1hr
cm
rain 24hr
cm
rain mn
cm
humidity
%
barometer
mb
20260510080508 11 280 1.6 4.8 0.00 0.69 0.00 92 1011.5
20260510080011 11 280 0.0 1.6 0.00 0.69 0.00 92 1011.4
20260510075513 11 280 0.0 0.0 0.00 0.69 0.00 92 1011.2
20260510075006 11 280 0.0 3.2 0.00 0.69 0.00 92 1011.3
20260510074506 11 280 0.0 3.2 0.00 0.69 0.00 92 1011.3
20260510074005 11 280 0.0 3.2 0.00 0.69 0.00 92 1011.5
20260510073500 11 280 0.0 4.8 0.00 0.69 0.00 92 1011.4
20260510072518 11 280 1.6 4.8 0.00 0.69 0.00 92 1011.4
20260510072019 11 280 1.6 4.8 0.00 0.69 0.00 92 1011.4
20260510071519 11 280 0.0 4.8 0.00 0.69 0.00 92 1011.5
20260510071012 11 280 1.6 4.8 0.00 0.69 0.00 92 1011.6
20260510070510 11 225 0.0 4.8 0.00 0.69 0.00 92 1011.5
20260510070010 11 255 0.0 3.2 0.00 0.69 0.00 92 1011.3
20260510065505 11 184 0.0 1.6 0.00 0.69 0.00 92 1011.1
20260510065009 11 184 0.0 1.6 0.00 0.69 0.00 92 1011.0
20260510064517 11 184 0.0 1.6 0.00 0.69 0.00 92 1010.9
20260510064003 11 184 0.0 1.6 0.00 0.69 0.00 92 1010.8
20260510063502 11 184 0.0 1.6 0.00 0.69 0.00 92 1010.9
20260510063059 11 184 0.0 1.6 0.00 0.69 0.00 92 1010.9
20260510062516 11 184 0.0 1.6 0.00 0.69 0.00 92 1010.9
20260510062014 11 184 0.0 1.6 0.00 0.69 0.00 92 1010.8
20260510061519 11 184 0.0 1.6 0.00 0.69 0.00 92 1010.9
20260510061011 11 184 0.0 3.2 0.00 0.69 0.00 92 1010.9
20260510060516 11 184 0.0 3.2 0.00 0.69 0.00 92 1010.9
20260510060009 11 184 0.0 1.6 0.00 0.69 0.00 92 1010.8
20260510055505 11 184 0.0 3.2 0.00 0.69 0.00 92 1010.9
20260510055003 11 184 1.6 3.2 0.00 0.69 0.00 92 1011.0
20260510054501 11 184 0.0 1.6 0.00 0.69 0.00 92 1011.0
20260510054003 11 184 0.0 4.8 0.00 0.69 0.00 92 1011.1
20260510053600 11 196 0.0 4.8 0.00 0.69 0.00 92 1011.2
20260510053059 11 196 1.6 4.8 0.00 0.69 0.00 92 1011.2
20260510052516 11 218 0.0 3.2 0.00 0.69 0.00 92 1011.2
20260510052015 11 184 0.0 3.2 0.00 0.69 0.00 92 1011.3
20260510051514 11 184 0.0 1.6 0.00 0.69 0.00 92 1011.2
20260510051011 11 184 0.0 3.2 0.00 0.69 0.00 92 1011.3
20260510050510 11 184 0.0 4.8 0.00 0.69 0.00 92 1011.3
20260510050008 11 184 0.0 4.8 0.00 0.69 0.00 92 1011.4
20260510045507 11 145 0.0 4.8 0.00 0.69 0.00 92 1011.3
20260510045007 11 145 0.0 4.8 0.00 0.69 0.00 92 1011.2
20260510044503 11 145 0.0 4.8 0.00 0.69 0.00 92 1011.2
20260510044100 11 126 0.0 4.8 0.00 0.69 0.00 92 1011.3
20260510043557 11 126 0.0 4.8 0.00 0.69 0.00 92 1011.2
20260510043103 11 126 0.0 1.6 0.00 0.69 0.00 92 1011.2
20260510042517 11 126 0.0 0.0 0.00 0.69 0.00 92 1011.3
20260510042019 11 126 0.0 0.0 0.00 0.69 0.00 92 1011.2
20260510041517 11 126 0.0 0.0 0.00 0.69 0.00 91 1011.1
20260510041012 11 126 0.0 1.6 0.00 0.69 0.00 92 1011.1
20260510040510 11 126 0.0 1.6 0.00 0.69 0.00 92 1011.0
20260510040008 11 126 0.0 1.6 0.00 0.69 0.69 92 1010.9
20260510035505 11 126 0.0 1.6 0.00 0.69 0.69 92 1010.7
20260510035003 11 126 0.0 3.2 0.00 0.69 0.69 91 1010.7
20260510034502 11 126 0.0 3.2 0.00 0.69 0.69 92 1010.7
20260510034000 11 127 0.0 3.2 0.00 0.69 0.69 91 1010.6
20260510033519 11 127 0.0 3.2 0.00 0.69 0.69 91 1010.7
20260510033019 11 147 0.0 1.6 0.00 0.69 0.69 91 1010.6
20260510032509 11 147 0.0 1.6 0.00 0.69 0.69 91 1010.8
20260510032009 11 147 0.0 1.6 0.00 0.69 0.69 91 1010.7
20260510031510 11 146 0.0 3.2 0.00 0.69 0.69 91 1010.7
20260510031007 11 146 0.0 3.2 0.00 0.69 0.69 91 1010.7
20260510030508 11 146 0.0 3.2 0.00 0.69 0.69 91 1010.8
20260510030006 11 223 0.0 4.8 0.00 0.69 0.69 91 1010.9
20260510025503 11 173 0.0 4.8 0.00 0.69 0.69 91 1010.7
20260510025004 11 181 0.0 1.6 0.00 0.69 0.69 91 1010.7
20260510024606 11 181 0.0 0.0 0.00 0.69 0.69 91 1010.6
20260510024016 11 181 0.0 3.2 0.00 0.69 0.69 91 1010.7
20260510023517 11 181 0.0 3.2 0.00 0.69 0.69 91 1010.7
20260510023013 11 181 0.0 3.2 0.00 0.69 0.69 91 1010.8
20260510022513 11 181 0.0 1.6 0.00 0.69 0.69 91 1010.8
20260510022009 11 181 0.0 3.2 0.00 0.69 0.69 91 1010.8
20260510021516 11 181 0.0 3.2 0.00 0.69 0.69 91 1010.8
20260510021004 11 181 1.6 3.2 0.00 0.69 0.69 91 1010.8
20260510020507 11 156 0.0 3.2 0.00 0.69 0.69 91 1010.8
20260510020005 11 88 0.0 6.4 0.00 0.69 0.69 91 1010.9
20260510015503 11 59 1.6 8.0 0.00 0.69 0.69 91 1010.8
20260510015001 11 170 1.6 8.0 0.00 0.69 0.69 91 1010.8
20260510014602 11 199 4.8 8.0 0.00 0.69 0.69 91 1010.7
20260510014019 11 116 0.0 3.2 0.00 0.69 0.69 91 1010.7
20260510013517 12 116 0.0 1.6 0.00 0.69 0.69 91 1010.7
20260510013013 12 116 0.0 3.2 0.00 0.69 0.69 91 1010.8
20260510012512 12 116 0.0 6.4 0.00 0.69 0.69 91 1010.7
20260510012010 12 113 0.0 6.4 0.00 0.69 0.69 91 1010.6
20260510011509 12 190 0.0 4.8 0.00 0.69 0.69 91 1010.6
20260510011006 12 188 0.0 4.8 0.00 0.69 0.69 91 1010.6
20260510010504 12 79 1.6 4.8 0.00 0.69 0.69 91 1010.5
20260510010002 12 131 0.0 3.2 0.00 0.69 0.69 90 1010.6
20260510005504 12 131 0.0 0.0 0.00 0.69 0.69 90 1010.5
20260510005002 12 131 0.0 0.0 0.00 0.69 0.69 90 1010.6
20260510004600 12 131 0.0 0.0 0.03 0.69 0.69 90 1010.5
20260510004018 12 131 0.0 0.0 0.03 0.69 0.69 90 1010.5
20260510003513 12 131 0.0 0.0 0.03 0.69 0.69 90 1010.5
20260510003012 12 131 0.0 1.6 0.03 0.69 0.69 91 1010.4
20260510002510 12 131 0.0 1.6 0.03 0.69 0.69 91 1010.4
20260510002007 12 131 0.0 1.6 0.03 0.69 0.69 91 1010.3
20260510001505 12 131 0.0 1.6 0.03 0.69 0.69 91 1010.3
20260510001004 12 131 0.0 3.2 0.03 0.69 0.69 91 1010.3
20260510000503 12 223 0.0 1.6 0.08 0.69 0.69 91 1010.2
20260510000100 12 223 0.0 1.6 0.08 0.69 0.69 91 1010.2
20260509235517 12 223 0.0 1.6 0.08 0.69 0.69 91 1010.2
20260509235013 12 224 0.0 4.8 0.08 0.69 0.69 91 1010.1
20260509234526 12 224 1.6 4.8 0.05 0.66 0.66 91 1010.3
20260509234016 12 177 0.0 3.2 0.08 0.66 0.66 91 1010.1
20260509233511 12 177 0.0 3.2 0.13 0.66 0.66 91 1010.0
20260509233010 12 177 0.0 3.2 0.20 0.66 0.66 91 1010.1
20260509232508 12 262 0.0 4.8 0.20 0.66 0.66 91 1010.4
20260509232010 12 199 0.0 4.8 0.20 0.66 0.66 91 1010.3
20260509231509 12 306 1.6 6.4 0.20 0.66 0.66 90 1010.4
20260509231001 12 123 3.2 6.4 0.18 0.64 0.64 90 1010.3
20260509230559 12 168 1.6 4.8 0.15 0.61 0.61 90 1010.7
20260509230018 12 224 0.0 4.8 0.15 0.61 0.61 90 1010.7
20260509225516 12 224 1.6 4.8 0.15 0.61 0.61 90 1010.4
20260509225013 12 154 0.0 3.2 0.15 0.61 0.61 90 1010.3
20260509224526 12 43 1.6 6.4 0.15 0.61 0.61 90 1010.6
20260509224010 12 18 0.0 14.5 0.13 0.58 0.58 90 1010.6
20260509223513 12 197 6.4 14.5 0.05 0.51 0.51 90 1011.4
20260509223011 12 249 4.8 11.3 0.00 0.46 0.46 90 1011.4
20260509222509 12 273 1.6 6.4 0.00 0.46 0.46 90 1010.8
20260509222007 12 184 1.6 6.4 0.00 0.46 0.46 90 1010.6
20260509221504 12 178 0.0 6.4 0.00 0.46 0.46 90 1010.6
20260509221003 12 167 1.6 9.7 0.00 0.46 0.46 90 1010.9
20260509220503 12 186 4.8 9.7 0.00 0.46 0.46 89 1011.0
20260509220058 12 200 1.6 9.7 0.00 0.46 0.46 89 1010.8
20260509215517 12 220 3.2 9.7 0.00 0.46 0.46 89 1010.7
20260509215015 12 202 0.0 6.4 0.00 0.46 0.46 89 1010.9
20260509214512 12 211 3.2 8.0 0.00 0.46 0.46 89 1011.0
20260509214010 12 264 1.6 9.7 0.00 0.46 0.46 89 1010.9
20260509213508 12 184 1.6 9.7 0.00 0.46 0.46 89 1011.0
20260509213007 12 231 3.2 6.4 0.00 0.46 0.46 89 1011.1
20260509212504 12 256 0.0 6.4 0.00 0.46 0.46 89 1011.1
20260509212006 12 256 1.6 6.4 0.00 0.46 0.46 89 1011.1
20260509211508 12 219 0.0 4.8 0.00 0.46 0.46 89 1011.1
20260509211003 12 232 1.6 12.9 0.00 0.46 0.46 89 1011.1
20260509210601 12 201 3.2 12.9 0.00 0.46 0.46 89 1011.1
20260509210104 12 214 4.8 12.9 0.00 0.46 0.46 89 1011.1
20260509205520 12 173 4.8 12.9 0.00 0.46 0.46 89 1011.2
20260509205014 12 204 4.8 12.9 0.00 0.46 0.46 89 1011.1
20260509204512 12 192 3.2 12.9 0.00 0.46 0.46 89 1011.2
20260509204011 12 213 4.8 17.7 0.00 0.46 0.46 89 1011.0
20260509203510 12 267 4.8 17.7 0.00 0.46 0.46 89 1011.0
20260509203011 12 192 8.0 17.7 0.00 0.46 0.46 88 1011.1
20260509202505 13 101 8.0 22.5 0.00 0.46 0.46 89 1011.0
20260509202006 13 190 6.4 27.4 0.03 0.46 0.46 89 1010.9
20260509201501 13 165 11.3 27.4 0.03 0.46 0.46 89 1010.9
20260509201003 13 182 9.7 20.9 0.03 0.46 0.46 89 1011.1
20260509200501 13 92 8.0 14.5 0.03 0.46 0.46 89 1011.1
20260509200059 13 211 3.2 14.5 0.05 0.46 0.46 89 1011.1
20260509195518 13 168 4.8 16.1 0.05 0.46 0.46 89 1011.2
20260509195013 13 205 4.8 16.1 0.08 0.46 0.46 89 1011.2
20260509194511 13 186 6.4 16.1 0.08 0.46 0.46 89 1011.3
20260509194010 13 178 6.4 20.9 0.10 0.46 0.46 89 1011.3
20260509193508 13 161 11.3 20.9 0.10 0.46 0.46 88 1011.3
20260509193009 13 169 4.8 11.3 0.10 0.46 0.46 88 1011.3
20260509192503 13 163 1.6 12.9 0.10 0.46 0.46 88 1011.1
20260509192002 13 79 3.2 14.5 0.10 0.43 0.43 88 1011.3
20260509191600 13 276 4.8 14.5 0.13 0.43 0.43 88 1011.4
20260509191017 13 175 1.6 12.9 0.23 0.43 0.43 88 1011.5
20260509190556 13 164 4.8 12.9 0.25 0.43 0.43 88 1011.5
20260509190058 13 188 4.8 16.1 0.23 0.41 0.41 87 1011.4
20260509185517 13 200 4.8 16.1 0.25 0.41 0.41 87 1011.5
20260509185012 13 186 4.8 24.1 0.23 0.38 0.38 87 1011.4
20260509184519 13 173 4.8 24.1 0.23 0.36 0.36 87 1011.5
20260509184008 13 204 1.6 12.9 0.23 0.36 0.36 87 1011.4
20260509183506 13 118 3.2 11.3 0.28 0.36 0.36 86 1011.4
20260509183005 13 186 1.6 11.3 0.28 0.36 0.36 86 1011.3
20260509182502 13 196 4.8 12.9 0.28 0.36 0.36 85 1011.2
20260509182001 13 164 4.8 17.7 0.28 0.33 0.33 85 1011.1
20260509181611 14 58 4.8 17.7 0.28 0.30 0.30 85 1011.4
20260509181019 14 191 1.6 9.7 0.20 0.20 0.20 84 1011.4
20260509180515 14 165 3.2 12.9 0.18 0.18 0.18 83 1011.3
20260509180013 14 137 6.4 16.1 0.18 0.18 0.18 83 1011.2
20260509175514 14 198 4.8 16.1 0.15 0.15 0.15 82 1011.3
20260509175014 15 187 1.6 16.1 0.15 0.15 0.15 81 1011.1
20260509174512 15 261 6.4 16.1 0.13 0.13 0.13 80 1011.3
20260509174010 15 177 4.8 16.1 0.13 0.13 0.13 79 1011.2
20260509173512 16 221 3.2 11.3 0.08 0.08 0.08 78 1011.3
20260509173006 16 196 1.6 8.0 0.08 0.08 0.08 77 1011.0
20260509172508 16 206 3.2 8.0 0.08 0.08 0.08 76 1010.7
20260509172003 16 173 1.6 16.1 0.05 0.05 0.05 75 1011.1
20260509171501 16 174 4.8 16.1 0.00 0.00 0.00 74 1011.1
20260509171058 16 175 3.2 11.3 0.00 0.00 0.00 73 1010.9
20260509170516 16 92 3.2 11.3 0.00 0.00 0.00 73 1011.0
20260509170021 16 152 4.8 8.0 0.00 0.00 0.00 73 1011.0
20260509165516 16 204 1.6 12.9 0.00 0.00 0.00 72 1010.9
20260509165012 16 169 6.4 12.9 0.00 0.00 0.00 72 1010.9
20260509164508 16 72 1.6 9.7 0.00 0.00 0.00 74 1010.9
20260509164007 16 206 1.6 11.3 0.00 0.00 0.00 74 1011.3
20260509163512 16 170 3.2 11.3 0.00 0.00 0.00 73 1011.3
20260509163006 16 150 3.2 9.7 0.00 0.00 0.00 73 1011.5
20260509162508 16 88 1.6 11.3 0.00 0.00 0.00 72 1011.6
20260509162002 16 96 4.8 11.3 0.00 0.00 0.00 72 1011.9
20260509161604 16 179 3.2 9.7 0.00 0.00 0.00 72 1011.9
20260509161017 16 127 3.2 9.7 0.00 0.00 0.00 73 1012.0
20260509160515 16 162 3.2 11.3 0.00 0.00 0.00 72 1012.0
20260509160014 16 178 0.0 17.7 0.00 0.00 0.00 72 1011.9
20260509155511 16 199 6.4 17.7 0.00 0.00 0.00 71 1012.0
20260509155009 16 125 4.8 17.7 0.00 0.00 0.00 72 1012.0
20260509154510 16 202 8.0 17.7 0.00 0.00 0.00 71 1012.0
20260509154006 16 136 3.2 14.5 0.00 0.00 0.00 71 1012.1
20260509153504 16 355 1.6 11.3 0.00 0.00 0.00 71 1012.2
20260509153003 16 99 3.2 16.1 0.00 0.00 0.00 70 1012.1
20260509152505 16 178 8.0 16.1 0.00 0.00 0.00 69 1012.2
20260509152003 16 70 1.6 14.5 0.00 0.00 0.00 70 1012.2
20260509151614 16 243 4.8 14.5 0.00 0.00 0.00 69 1012.2
20260509151058 16 197 3.2 12.9 0.00 0.00 0.00 69 1012.2
20260509150520 16 180 3.2 16.1 0.00 0.00 0.00 69 1012.2
20260509150014 16 219 6.4 16.1 0.00 0.00 0.00 68 1012.3
20260509145513 16 193 3.2 12.9 0.00 0.00 0.00 68 1012.3
20260509145011 16 188 6.4 14.5 0.00 0.00 0.00 68 1012.4
20260509144514 16 217 4.8 22.5 0.00 0.00 0.00 69 1012.3
20260509144006 16 145 6.4 22.5 0.00 0.00 0.00 69 1012.3
20260509143506 16 223 6.4 12.9 0.00 0.00 0.00 71 1012.4
20260509143010 16 63 3.2 14.5 0.00 0.00 0.00 71 1012.3
20260509142504 15 216 3.2 14.5 0.00 0.00 0.00 71 1012.3
20260509142001 15 180 8.0 17.7 0.00 0.00 0.00 72 1012.1
20260509141512 15 201 1.6 17.7 0.00 0.00 0.00 73 1012.2
20260509141003 15 197 3.2 16.1 0.00 0.00 0.00 73 1012.2
20260509140501 15 153 6.4 16.1 0.00 0.00 0.00 73 1012.3
20260509140059 15 177 8.0 16.1 0.00 0.00 0.00 74 1012.4
20260509135520 14 138 3.2 12.9 0.00 0.00 0.00 74 1012.4
20260509135015 14 108 3.2 12.9 0.00 0.00 0.00 75 1012.4
20260509134525 14 263 3.2 12.9 0.00 0.00 0.00 75 1012.4
20260509134010 14 192 1.6 8.0 0.00 0.00 0.00 76 1012.3
20260509133509 13 172 1.6 8.0 0.00 0.00 0.00 77 1012.6
20260509133007 13 190 1.6 12.9 0.00 0.00 0.00 77 1012.5
20260509132510 13 63 3.2 12.9 0.00 0.00 0.00 77 1012.7
20260509132003 13 136 1.6 11.3 0.00 0.00 0.00 78 1012.7
20260509131601 13 190 4.8 11.3 0.00 0.00 0.00 78 1012.8
20260509131058 13 202 3.2 9.7 0.00 0.00 0.00 79 1012.6
20260509130514 13 214 1.6 9.7 0.00 0.00 0.00 79 1012.6
20260509130020 13 192 4.8 9.7 0.00 0.00 0.00 80 1012.6
20260509125517 12 140 4.8 11.3 0.00 0.00 0.00 81 1012.6
20260509125011 12 39 1.6 12.9 0.00 0.00 0.00 82 1012.9
20260509124514 12 225 3.2 12.9 0.00 0.00 0.00 82 1012.8
20260509124007 12 60 3.2 9.7 0.00 0.00 0.00 83 1012.8
20260509123506 12 178 3.2 11.3 0.00 0.00 0.00 83 1012.8
20260509123011 12 182 4.8 11.3 0.00 0.00 0.00 83 1012.8
20260509122502 12 144 1.6 6.4 0.00 0.00 0.00 83 1012.8
20260509122100 12 159 1.6 6.4 0.00 0.00 0.00 83 1012.8
20260509121559 11 169 1.6 6.4 0.00 0.00 0.00 84 1012.8
20260509121016 11 184 1.6 6.4 0.00 0.00 0.00 84 1012.9
20260509120519 11 149 1.6 8.0 0.00 0.00 0.00 84 1013.0
20260509120021 11 150 1.6 8.0 0.00 0.00 0.00 84 1013.0
20260509115511 11 164 0.0 4.8 0.00 0.00 0.00 84 1012.9
20260509115013 11 176 1.6 6.4 0.00 0.00 0.00 84 1012.9
20260509114512 11 180 1.6 8.0 0.00 0.00 0.00 85 1012.9
20260509114013 11 173 1.6 9.7 0.00 0.00 0.00 85 1012.9
20260509113508 11 191 0.0 3.2 0.00 0.00 0.00 85 1013.0
20260509113005 11 191 0.0 4.8 0.00 0.00 0.00 85 1013.0
20260509112503 11 191 1.6 6.4 0.00 0.00 0.00 85 1013.0
20260509112001 11 168 0.0 4.8 0.00 0.00 0.00 86 1012.9
20260509111613 11 168 0.0 4.8 0.00 0.00 0.00 86 1012.7
20260509111017 11 168 0.0 3.2 0.00 0.00 0.00 86 1012.8
20260509110516 11 177 0.0 3.2 0.00 0.00 0.00 86 1012.8
20260509110013 10 177 0.0 3.2 0.00 0.00 0.00 86 1012.9
20260509105513 10 126 0.0 1.6 0.00 0.00 0.00 86 1012.8
20260509105009 10 126 0.0 1.6 0.00 0.00 0.00 86 1012.8
20260509104507 10 126 0.0 1.6 0.00 0.00 0.00 86 1012.8
20260509104010 10 126 0.0 1.6 0.00 0.00 0.00 86 1012.7
20260509103508 10 126 0.0 6.4 0.00 0.00 0.00 86 1012.7
20260509103005 10 126 0.0 6.4 0.00 0.00 0.00 86 1012.7
20260509102505 10 178 0.0 1.6 0.00 0.00 0.00 86 1012.6
20260509102002 10 178 0.0 0.0 0.00 0.00 0.00 86 1012.6
20260509101600 10 178 0.0 0.0 0.00 0.00 0.00 86 1012.5
20260509101058 10 178 0.0 1.6 0.00 0.00 0.00 86 1012.6
20260509100516 10 178 0.0 3.2 0.00 0.00 0.00 86 1012.6
20260509100014 10 178 0.0 3.2 0.00 0.00 0.00 86 1012.5
20260509095514 10 178 0.0 3.2 0.00 0.00 0.00 86 1012.3
20260509095006 10 139 1.6 3.2 0.00 0.00 0.00 86 1012.1
20260509094504 10 221 0.0 3.2 0.00 0.00 0.00 86 1012.2
20260509094001 10 185 0.0 3.2 0.00 0.00 0.00 86 1012.2
20260509093557 10 197 1.6 3.2 0.00 0.00 0.00 86 1012.4
20260509093013 10 151 0.0 3.2 0.00 0.00 0.00 86 1012.3
20260509092515 10 196 0.0 3.2 0.00 0.00 0.00 86 1012.3
20260509092013 10 196 0.0 4.8 0.00 0.00 0.00 86 1012.4
20260509091511 10 191 1.6 4.8 0.00 0.00 0.00 86 1012.4
20260509091009 10 191 0.0 3.2 0.00 0.00 0.00 86 1012.4
20260509090507 10 189 0.0 3.2 0.00 0.00 0.00 86 1012.3
20260509090006 10 189 0.0 1.6 0.00 0.00 0.00 86 1012.4
20260509085503 10 189 0.0 1.6 0.00 0.00 0.00 86 1012.3
20260509085001 10 189 0.0 1.6 0.00 0.00 0.00 86 1012.3
20260509084609 10 189 0.0 1.6 0.00 0.00 0.00 86 1012.1
20260509084022 10 189 0.0 0.0 0.00 0.00 0.00 86 1012.3
20260509083516 10 189 0.0 3.2 0.00 0.00 0.00 86 1012.4
20260509083015 10 189 0.0 3.2 0.00 0.00 0.00 86 1012.5
20260509082511 10 193 0.0 4.8 0.00 0.00 0.00 86 1012.6
20260509082009 10 193 0.0 4.8 0.00 0.00 0.00 86 1012.7
20260509081522 10 194 0.0 4.8 0.00 0.00 0.00 86 1012.7
20260509081009 10 191 0.0 9.7 0.00 0.00 0.00 86 1012.7